Temp
64 62 61 61 61 62 64 69 73 73 73 73 73 73 73 73 73 74 74 74 73 73 72 72 72 71 71 70 70 72 90 91
64 65 62 60 59 60 62 64 71 72 72 72 72 72 72 72 72 73 73 73 73 72 71 71 71 70 69 69 70 71 92 91
64 63 64 64 60 58 59 60 62 72 73 71 72 82 82 80 77 72 72 72 71 71 71 70 70 70 69 69 70 89 91 91
65 62 62 64 68 60 56 58 60 63 82 83 80 82 83 82 79 70 71 71 70 70 70 70 71 84 80 72 85 88 87 91
65 63 62 62 63 67 59 56 57 60 63 76 79 79 82 82 80 79 78 72 79 76 76 82 83 86 86 84 88 87 85 91
63 63 61 61 63 65 65 62 56 58 60 62 67 73 75 78 80 81 80 81 81 82 83 83 84 86 86 85 86 88 91 87
61 61 60 60 61 62 63 65 59 56 57 58 60 65 72 74 75 77 80 83 82 83 84 84 84 82 85 86 80 85 89 87
61 60 59 60 61 60 61 64 64 61 57 57 58 57 67 70 70 73 75 82 83 83 85 84 84 80 83 84 82 84 85 86
60 60 60 58 59 60 62 64 62 65 63 57 56 58 58 63 69 71 72 74 80 80 82 85 84 82 82 84 83 82 84 84
61 62 60 58 58 60 62 63 63 65 61 65 58 57 58 57 59 67 71 73 73 76 74 82 83 78 78 84 83 82 81 82
60 60 59 57 57 59 60 61 63 63 64 64 59 56 55 55 56 58 69 68 70 71 74 79 82 78 80 81 83 85 83 81
60 60 59 58 59 58 59 59 60 62 62 63 62 60 56 55 53 55 61 68 68 70 71 77 81 82 77 76 79 83 85 82
60 59 58 59 58 56 54 53 55 57 61 60 60 61 58 54 53 55 56 64 70 69 67 70 77 82 75 70 72 75 74 76
59 59 59 59 59 58 56 54 53 52 56 57 58 58 59 57 54 54 57 55 67 69 67 66 72 80 73 71 61 64 69 71
59 59 59 59 58 59 57 56 53 49 48 50 53 54 56 57 57 54 54 56 58 66 67 69 64 74 76 72 65 63 72 74
59 59 59 59 57 56 54 52 47 47 47 47 48 51 53 55 55 54 51 52 58 59 65 67 68 65 72 78 78 78 74 71
58 58 59 58 56 56 55 53 53 53 48 45 46 47 50 53 52 52 50 50 53 59 60 65 67 68 67 74 76 78 79 78
57 57 57 57 56 55 53 51 49 47 45 43 44 45 46 49 49 50 50 49 50 53 59 60 64 65 66 67 73 74 75 76
56 56 54 55 54 53 52 47 48 45 42 43 42 42 42 44 47 46 49 49 50 53 54 60 61 61 62 61 65 75 80 79
54 54 53 53 53 52 52 47 47 46 42 42 45 41 42 43 46 45 47 47 49 50 52 60 60 59 60 59 58 62 76 82
MSLP
1020.90 1020.32 1019.59 1018.83 1018.19 1017.64 1017.25 1016.50 1016.05 1016.11 1016.03 1016.05 1016.03 1016.23 1016.45 1016.63 1016.59 1016.66 1016.62 1016.72 1017.11 1017.43 1017.85 1018.39 1018.86 1019.01 1019.19 1019.43 1019.51 1019.27 1018.39 1018.55
1021.46 1020.79 1020.03 1019.77 1019.07 1018.35 1017.56 1016.89 1016.05 1015.95 1016.07 1016.13 1016.11 1016.16 1016.31 1016.57 1016.82 1016.84 1016.83 1016.71 1017.19 1017.52 1017.70 1018.15 1018.74 1019.34 1019.43 1019.58 1019.81 1019.55 1018.32 1018.72
1021.80 1021.29 1020.65 1019.90 1019.41 1018.77 1018.25 1017.30 1016.62 1015.91 1015.91 1015.92 1016.13 1015.85 1015.94 1016.31 1016.37 1016.64 1016.98 1016.92 1017.11 1017.57 1017.85 1018.23 1018.71 1019.33 1019.64 1019.84 1020.01 1018.85 1018.27 1018.50
1022.03 1021.95 1021.39 1020.58 1019.48 1019.12 1019.03 1018.49 1017.63 1016.63 1015.23 1015.08 1015.44 1015.32 1015.37 1015.60 1015.69 1016.46 1016.81 1017.03 1017.03 1017.50 1017.90 1018.27 1018.65 1018.66 1019.46 1019.95 1019.21 1018.39 1018.43 1018.37
1022.73 1022.42 1022.15 1021.40 1020.40 1019.45 1019.21 1019.06 1018.20 1017.37 1016.59 1015.56 1015.23 1015.18 1014.97 1015.28 1015.50 1015.96 1016.49 1017.05 1016.84 1017.27 1017.84 1017.77 1017.58 1017.45 1018.04 1018.71 1018.23 1018.47 1018.83 1018.36
1023.36 1023.06 1022.70 1022.13 1021.31 1020.15 1019.36 1018.87 1019.03 1018.28 1017.81 1016.91 1015.67 1015.48 1015.12 1014.63 1014.96 1015.21 1015.56 1015.73 1016.06 1016.19 1016.46 1016.76 1016.92 1016.84 1017.15 1017.85 1017.86 1018.03 1017.89 1018.41
1023.82 1023.41 1022.95 1022.38 1021.47 1020.82 1019.90 1018.93 1018.74 1018.99 1018.21 1017.23 1016.90 1016.62 1015.03 1014.47 1014.76 1014.57 1015.08 1014.91 1015.23 1015.71 1015.53 1016.11 1016.27 1016.75 1016.91 1017.27 1018.32 1017.99 1017.77 1018.39
1024.18 1023.68 1023.39 1022.75 1021.71 1021.15 1020.36 1019.49 1018.86 1018.35 1018.60 1018.11 1017.55 1017.97 1014.64 1014.54 1014.54 1014.48 1014.69 1014.65 1015.07 1015.27 1015.19 1015.41 1015.89 1016.80 1016.68 1017.12 1017.79 1017.98 1017.97 1018.10
1024.57 1024.06 1023.69 1023.06 1022.15 1021.38 1020.29 1019.67 1019.39 1018.50 1017.65 1018.35 1017.65 1017.69 1016.81 1015.30 1015.10 1014.64 1014.09 1014.42 1015.00 1015.17 1015.34 1015.31 1015.44 1015.91 1016.20 1016.66 1017.27 1017.62 1017.95 1018.14
1025.15 1024.68 1024.13 1023.63 1022.85 1021.75 1020.89 1019.98 1019.59 1018.76 1018.74 1017.83 1017.47 1017.63 1017.60 1016.35 1014.02 1014.40 1013.34 1013.24 1014.24 1014.85 1015.33 1015.36 1015.17 1015.69 1015.94 1016.07 1016.69 1017.36 1017.72 1017.97
1025.36 1025.06 1024.53 1024.17 1023.24 1022.38 1021.22 1020.34 1019.74 1019.28 1018.64 1017.97 1017.73 1017.11 1016.47 1016.59 1015.04 1014.25 1013.04 1013.07 1013.87 1014.43 1014.86 1015.38 1014.76 1015.61 1015.68 1015.84 1016.05 1016.30 1016.98 1017.75
1025.87 1025.34 1024.83 1024.34 1023.60 1022.91 1021.92 1021.00 1020.10 1019.58 1019.11 1018.44 1017.93 1017.06 1016.68 1016.01 1015.43 1015.31 1011.54 1011.47 1012.48 1014.16 1013.89 1014.93 1014.75 1014.72 1015.65 1015.68 1015.91 1016.09 1016.11 1016.96
1026.07 1025.46 1025.02 1024.42 1023.57 1023.00 1022.24 1021.36 1020.81 1020.13 1019.39 1019.13 1018.33 1017.47 1016.71 1015.81 1014.87 1014.14 1014.83 1012.72 1011.40 1012.21 1013.07 1014.26 1014.33 1014.21 1014.89 1015.60 1016.17 1016.39 1016.81 1017.20
1026.33 1025.77 1025.21 1024.67 1024.10 1023.38 1023.07 1022.33 1021.52 1021.26 1020.61 1019.87 1018.95 1018.31 1017.32 1016.26 1015.27 1014.30 1014.09 1012.41 1010.77 1011.31 1012.50 1013.32 1013.58 1013.58 1014.16 1014.84 1015.79 1016.94 1016.99 1017.19
1026.44 1025.91 1025.33 1024.85 1024.45 1023.47 1022.82 1022.31 1021.71 1021.12 1021.02 1020.58 1019.81 1018.75 1017.93 1016.85 1015.72 1014.85 1014.53 1013.53 1011.72 1010.07 1009.58 1011.36 1012.94 1012.85 1013.37 1013.31 1014.31 1014.53 1015.30 1016.17
1026.74 1026.19 1025.45 1024.84 1024.53 1023.79 1023.08 1022.19 1021.71 1021.46 1021.11 1020.82 1020.35 1019.21 1018.19 1017.10 1016.09 1015.27 1014.54 1013.57 1012.05 1010.63 1009.82 1009.24 1011.39 1012.22 1012.80 1012.64 1012.73 1012.83 1012.96 1014.05
1026.97 1026.31 1025.53 1025.06 1024.63 1024.13 1023.32 1022.48 1022.03 1021.32 1021.26 1020.88 1020.35 1019.77 1018.69 1017.59 1016.82 1015.62 1014.76 1013.88 1012.82 1010.93 1010.56 1009.67 1010.71 1011.43 1011.89 1011.99 1012.19 1012.34 1012.31 1012.45
1027.14 1026.48 1025.77 1025.27 1024.87 1024.29 1023.61 1023.20 1022.49 1021.90 1021.40 1020.84 1020.40 1019.83 1018.99 1017.86 1017.17 1016.07 1014.99 1013.97 1013.27 1012.58 1011.10 1010.97 1010.82 1010.64 1011.23 1011.82 1011.52 1011.22 1011.48 1011.73
1027.23 1026.63 1025.99 1025.53 1025.02 1024.52 1024.07 1023.91 1022.98 1022.52 1022.11 1021.03 1020.41 1019.84 1019.20 1018.19 1017.16 1016.18 1015.06 1014.12 1013.22 1012.73 1012.11 1009.71 1009.51 1010.47 1010.67 1011.39 1010.83 1011.29 1011.06 1011.34
1027.36 1026.85 1026.25 1025.84 1025.33 1024.73 1024.17 1024.08 1023.46 1022.87 1022.53 1021.64 1020.50 1020.12 1019.43 1018.66 1017.41 1016.56 1015.01 1013.89 1012.90 1011.97 1011.37 1010.18 1009.48 1009.89 1010.25 1010.19 1012.14 1012.78 1011.15 1010.63
Wind_Speed
19 18 22 28 26 26 25 19 4 6 6 7 9 8 8 9 10 10 11 12 13 14 14 13 13 13 13 11 10 9 11 10
21 20 16 17 18 24 24 23 10 7 8 8 8 9 9 9 9 9 10 13 13 14 15 14 14 11 12 11 8 7 12 12
21 22 21 19 12 15 21 24 25 9 9 10 8 11 13 15 14 11 11 12 13 14 15 14 13 11 11 11 10 10 10 9
20 21 21 21 15 12 13 14 12 14 10 12 11 13 12 13 14 12 12 12 13 13 14 14 14 13 10 10 11 9 7 9
21 19 19 20 17 13 5 8 8 9 16 10 10 9 10 11 7 9 11 11 10 13 12 13 18 13 13 13 14 10 7 7
22 21 18 18 13 11 13 8 9 8 12 12 11 8 9 9 8 11 12 11 13 14 12 15 18 16 16 16 13 11 8 7
23 21 20 18 15 13 13 12 7 10 11 11 10 13 9 9 9 9 10 12 12 13 14 15 16 13 14 15 12 13 11 8
23 22 21 20 17 17 12 12 13 9 6 11 14 12 10 8 10 10 9 11 12 12 13 15 13 13 15 14 15 14 11 11
23 23 22 21 20 17 14 12 12 11 10 10 13 12 12 8 14 11 10 9 13 10 13 14 14 13 16 14 13 15 13 12
20 19 22 23 20 16 13 13 12 11 9 11 13 14 11 9 6 11 11 10 11 9 10 13 14 11 10 13 12 13 13 13
19 20 22 22 20 17 16 17 12 11 11 10 11 14 15 12 7 10 15 10 9 9 10 15 13 12 14 12 12 12 14 11
18 16 19 19 15 15 14 14 14 12 11 11 16 11 12 14 10 10 15 17 16 13 15 12 15 14 12 10 10 12 10 12
19 19 19 15 13 14 15 15 15 15 13 17 16 15 14 12 10 12 12 13 17 17 12 16 15 15 11 8 7 9 7 9
19 19 19 16 14 12 12 14 13 13 15 17 17 18 16 13 13 13 11 11 14 21 18 12 12 14 13 12 7 4 8 10
19 19 19 17 19 13 12 11 12 11 12 13 17 18 17 15 13 10 10 13 12 12 23 23 15 13 19 11 10 9 12 11
18 18 19 16 18 16 19 14 13 13 12 12 13 18 17 16 13 11 12 12 12 8 12 15 17 14 14 15 15 11 14 10
17 19 19 19 18 17 15 16 14 12 12 18 16 14 18 16 15 15 11 10 14 11 13 16 14 15 13 15 15 13 12 12
17 20 21 20 18 18 17 20 18 15 16 13 12 11 11 16 16 14 12 11 11 11 10 12 13 15 14 13 15 14 13 13
17 20 21 20 19 18 17 16 19 17 16 14 15 12 11 14 17 15 11 11 13 11 12 10 9 5 5 3 8 13 13 12
19 20 21 21 19 18 15 15 11 12 12 13 13 11 12 16 15 15 16 14 13 12 8 9 10 10 9 6 10 13 13 13
Wind_Direction
4 4 2 359 357 356 346 333 261 276 243 213 191 193 188 186 180 176 169 160 152 152 148 150 148 148 143 146 167 222 158 161
6 2 4 356 352 349 348 343 277 232 246 230 214 194 188 192 187 181 176 157 159 159 154 155 150 152 147 147 173 228 180 157
6 0 359 355 354 346 345 344 340 222 230 220 211 219 205 201 206 166 179 164 163 165 159 152 148 148 150 146 173 193 168 174
6 2 357 352 349 352 344 337 332 336 245 229 218 226 216 217 200 171 176 173 164 165 161 150 166 173 171 160 200 176 202 178
3 1 359 354 347 340 355 328 323 327 346 293 244 233 219 211 205 192 196 181 185 175 169 182 190 180 177 186 208 167 202 190
2 359 360 356 344 344 335 345 339 334 326 321 345 235 230 210 218 203 203 183 196 190 183 191 192 191 183 191 205 197 183 206
3 359 359 354 349 347 338 333 342 331 327 333 339 309 221 207 223 198 210 191 194 196 188 193 193 189 198 195 193 217 186 196
2 2 359 353 352 350 337 335 337 337 333 328 334 318 276 225 225 208 190 207 204 200 199 193 191 192 202 200 200 204 204 191
1 360 358 357 353 347 344 342 333 331 343 323 322 326 316 342 237 211 192 192 212 204 211 202 196 196 202 197 199 199 195 198
357 358 358 355 355 349 345 350 335 341 336 327 338 318 325 283 19 256 203 179 186 202 184 216 203 194 202 197 203 195 201 199
358 356 358 354 350 350 349 348 350 344 338 334 335 336 336 325 302 327 208 189 184 186 189 217 210 197 204 205 199 205 193 197
1 359 355 352 350 351 352 350 350 349 346 347 330 329 328 330 319 305 301 188 186 197 184 209 218 204 203 200 204 210 207 191
359 358 356 351 352 351 349 350 347 345 352 347 335 339 329 314 316 319 304 304 185 190 181 198 212 210 192 198 207 206 195 220
355 356 352 353 351 346 349 343 344 337 349 340 350 334 333 324 317 311 327 321 222 190 182 194 208 208 201 182 181 201 199 211
352 351 349 352 349 342 342 342 342 342 343 339 340 339 330 324 309 299 307 298 279 222 185 183 194 203 201 186 185 213 196 190
352 350 346 349 346 342 344 344 344 339 336 336 336 336 336 328 327 325 318 314 281 288 243 181 184 197 197 209 205 209 205 193
351 347 348 349 345 341 341 344 341 339 336 338 335 334 339 335 336 323 316 314 315 266 281 197 194 190 198 204 214 215 224 214
348 345 345 348 345 343 345 344 339 339 337 337 337 337 333 338 335 325 318 309 306 314 240 273 208 200 190 208 209 209 205 214
346 346 345 347 346 344 352 341 331 343 335 332 338 336 337 329 340 327 323 316 307 300 298 221 226 200 153 154 249 223 222 218
345 344 344 346 346 342 348 343 337 343 331 329 331 338 332 329 334 330 333 328 321 313 293 277 202 201 211 236 252 278 239 219